Precipitable_Water
0.25 0.25 0.25 0.25 0.24 0.23 0.24 0.24 0.24 0.24 0.25 0.21 0.24 0.31 0.12 0.13 0.11 0.19 0.20 0.22 0.18 0.11 0.11 0.13 0.12 0.11 0.14 0.19 0.17 0.19 0.16 0.15 0.16 0.14 0.17 0.13 0.17 0.16 0.15 0.14 0.14 0.17 0.15 0.15 0.15 0.16 0.14 0.15 0.14 0.15 0.16 0.17 0.19 0.23 0.24 0.25 0.23 0.21 0.19 0.20 0.22 0.24 0.16 0.13 0.13 0.15 0.17 0.18 0.19 0.20 0.20 0.19 0.17 0.18 0.19 0.17 0.15 0.15 0.14 0.13 0.14 0.13 0.13 0.13 0.12 0.10 0.12
0.26 0.25 0.25 0.24 0.24 0.24 0.24 0.24 0.25 0.22 0.25 0.22 0.24 0.14 0.13 0.13 0.12 0.14 0.20 0.26 0.20 0.10 0.08 0.08 0.10 0.12 0.15 0.15 0.14 0.19 0.16 0.15 0.14 0.13 0.14 0.13 0.13 0.13 0.14 0.16 0.17 0.14 0.19 0.17 0.14 0.18 0.12 0.16 0.16 0.15 0.17 0.16 0.25 0.24 0.24 0.26 0.20 0.20 0.18 0.17 0.22 0.16 0.16 0.15 0.12 0.12 0.12 0.13 0.15 0.16 0.17 0.18 0.16 0.16 0.17 0.17 0.17 0.17 0.16 0.17 0.17 0.13 0.13 0.13 0.12 0.09 0.11
0.25 0.25 0.25 0.24 0.24 0.24 0.24 0.24 0.24 0.23 0.25 0.28 0.23 0.12 0.14 0.14 0.16 0.15 0.16 0.20 0.17 0.09 0.10 0.10 0.10 0.10 0.10 0.10 0.10 0.11 0.13 0.17 0.16 0.15 0.13 0.17 0.15 0.16 0.14 0.16 0.18 0.16 0.19 0.17 0.18 0.20 0.16 0.14 0.18 0.17 0.17 0.17 0.24 0.24 0.23 0.25 0.22 0.26 0.26 0.23 0.26 0.18 0.16 0.15 0.12 0.11 0.10 0.10 0.11 0.12 0.13 0.15 0.16 0.17 0.16 0.17 0.16 0.15 0.15 0.13 0.13 0.12 0.13 0.14 0.13 0.12 0.13
0.25 0.25 0.24 0.24 0.24 0.24 0.24 0.23 0.23 0.23 0.25 0.30 0.28 0.20 0.13 0.12 0.07 0.09 0.10 0.13 0.12 0.14 0.17 0.12 0.10 0.10 0.10 0.09 0.11 0.13 0.11 0.15 0.18 0.20 0.15 0.17 0.18 0.17 0.18 0.19 0.20 0.17 0.17 0.15 0.15 0.16 0.20 0.16 0.15 0.17 0.17 0.18 0.20 0.24 0.24 0.24 0.25 0.26 0.25 0.24 0.23 0.18 0.19 0.18 0.16 0.15 0.13 0.14 0.15 0.17 0.18 0.16 0.14 0.15 0.16 0.16 0.16 0.17 0.16 0.16 0.14 0.12 0.13 0.12 0.13 0.13 0.13
0.26 0.25 0.25 0.24 0.24 0.23 0.23 0.23 0.21 0.22 0.25 0.33 0.22 0.16 0.13 0.12 0.08 0.09 0.07 0.11 0.12 0.12 0.14 0.12 0.12 0.09 0.11 0.08 0.11 0.09 0.12 0.13 0.14 0.21 0.13 0.17 0.16 0.18 0.17 0.17 0.15 0.15 0.16 0.15 0.16 0.17 0.17 0.19 0.18 0.17 0.17 0.18 0.19 0.24 0.24 0.26 0.27 0.27 0.25 0.26 0.23 0.19 0.17 0.17 0.17 0.17 0.17 0.17 0.17 0.17 0.18 0.16 0.16 0.15 0.15 0.16 0.16 0.16 0.15 0.14 0.12 0.14 0.13 0.11 0.13 0.14 0.13
0.25 0.25 0.24 0.24 0.23 0.23 0.22 0.22 0.22 0.21 0.22 0.29 0.26 0.12 0.15 0.09 0.14 0.17 0.17 0.08 0.07 0.08 0.09 0.14 0.12 0.12 0.12 0.10 0.14 0.11 0.11 0.12 0.11 0.17 0.18 0.18 0.19 0.14 0.18 0.18 0.17 0.17 0.16 0.17 0.14 0.16 0.16 0.17 0.15 0.18 0.18 0.18 0.19 0.20 0.26 0.24 0.27 0.27 0.24 0.27 0.22 0.18 0.16 0.17 0.17 0.17 0.18 0.18 0.18 0.18 0.17 0.16 0.16 0.16 0.16 0.15 0.16 0.15 0.14 0.14 0.15 0.15 0.13 0.12 0.14 0.15 0.14
0.24 0.23 0.23 0.22 0.23 0.23 0.23 0.24 0.23 0.23 0.21 0.26 0.21 0.10 0.13 0.14 0.14 0.15 0.18 0.09 0.10 0.11 0.11 0.13 0.11 0.10 0.12 0.11 0.11 0.10 0.12 0.11 0.14 0.13 0.15 0.18 0.16 0.17 0.13 0.14 0.17 0.17 0.19 0.17 0.15 0.16 0.14 0.14 0.17 0.17 0.17 0.17 0.18 0.17 0.20 0.27 0.27 0.25 0.23 0.24 0.23 0.19 0.17 0.17 0.18 0.17 0.17 0.17 0.17 0.17 0.16 0.16 0.16 0.16 0.15 0.16 0.16 0.15 0.15 0.15 0.16 0.16 0.15 0.15 0.15 0.15 0.14
0.23 0.22 0.21 0.22 0.21 0.22 0.22 0.23 0.24 0.26 0.29 0.27 0.14 0.12 0.10 0.09 0.08 0.08 0.13 0.13 0.12 0.13 0.13 0.13 0.12 0.10 0.12 0.09 0.11 0.12 0.12 0.12 0.15 0.16 0.15 0.12 0.14 0.20 0.15 0.15 0.17 0.18 0.19 0.19 0.16 0.17 0.18 0.18 0.16 0.19 0.18 0.18 0.20 0.19 0.19 0.19 0.24 0.25 0.22 0.22 0.24 0.19 0.16 0.19 0.17 0.16 0.16 0.17 0.17 0.17 0.16 0.16 0.14 0.15 0.15 0.16 0.16 0.16 0.16 0.16 0.15 0.16 0.15 0.15 0.15 0.14 0.13
0.22 0.21 0.21 0.20 0.21 0.21 0.21 0.20 0.19 0.22 0.28 0.14 0.13 0.12 0.15 0.11 0.13 0.11 0.08 0.08 0.10 0.12 0.12 0.11 0.10 0.09 0.11 0.09 0.11 0.12 0.13 0.13 0.16 0.15 0.19 0.15 0.14 0.17 0.16 0.18 0.18 0.20 0.20 0.20 0.19 0.21 0.21 0.21 0.20 0.21 0.20 0.17 0.21 0.19 0.19 0.24 0.20 0.22 0.21 0.22 0.21 0.21 0.17 0.19 0.17 0.15 0.14 0.16 0.16 0.15 0.16 0.15 0.15 0.14 0.15 0.15 0.15 0.14 0.15 0.15 0.16 0.15 0.14 0.14 0.14 0.12 0.12
0.21 0.21 0.20 0.20 0.20 0.20 0.18 0.19 0.19 0.23 0.27 0.12 0.12 0.09 0.15 0.14 0.15 0.12 0.09 0.07 0.11 0.09 0.13 0.13 0.12 0.08 0.11 0.12 0.13 0.11 0.13 0.16 0.18 0.15 0.19 0.19 0.22 0.20 0.19 0.19 0.19 0.18 0.18 0.18 0.19 0.22 0.23 0.23 0.24 0.25 0.26 0.27 0.27 0.27 0.26 0.26 0.23 0.21 0.21 0.23 0.20 0.20 0.18 0.17 0.16 0.14 0.13 0.15 0.16 0.15 0.15 0.14 0.12 0.13 0.15 0.16 0.16 0.16 0.16 0.17 0.17 0.17 0.16 0.14 0.12 0.12 0.15
0.19 0.19 0.19 0.19 0.18 0.17 0.17 0.18 0.20 0.22 0.27 0.14 0.09 0.09 0.12 0.10 0.10 0.10 0.10 0.07 0.09 0.11 0.10 0.09 0.09 0.10 0.13 0.14 0.12 0.15 0.14 0.16 0.17 0.13 0.14 0.20 0.22 0.24 0.22 0.20 0.18 0.18 0.18 0.21 0.26 0.27 0.27 0.28 0.28 0.29 0.28 0.28 0.27 0.27 0.27 0.27 0.26 0.24 0.22 0.21 0.21 0.21 0.19 0.18 0.18 0.14 0.14 0.15 0.15 0.16 0.13 0.10 0.12 0.17 0.18 0.17 0.16 0.16 0.15 0.16 0.17 0.17 0.17 0.16 0.16 0.16 0.16
0.18 0.18 0.18 0.18 0.18 0.17 0.18 0.18 0.19 0.20 0.19 0.18 0.13 0.11 0.15 0.17 0.12 0.10 0.08 0.07 0.08 0.11 0.09 0.08 0.10 0.12 0.11 0.13 0.13 0.12 0.13 0.15 0.16 0.18 0.15 0.19 0.22 0.24 0.24 0.22 0.21 0.17 0.24 0.30 0.29 0.29 0.29 0.30 0.30 0.30 0.29 0.28 0.28 0.28 0.27 0.25 0.25 0.27 0.26 0.22 0.20 0.19 0.19 0.18 0.19 0.16 0.14 0.15 0.15 0.13 0.10 0.11 0.17 0.19 0.19 0.18 0.18 0.18 0.17 0.17 0.17 0.17 0.18 0.17 0.16 0.16 0.15
0.18 0.18 0.18 0.18 0.18 0.18 0.17 0.18 0.17 0.18 0.19 0.18 0.14 0.11 0.17 0.22 0.12 0.09 0.08 0.07 0.07 0.09 0.08 0.09 0.14 0.14 0.14 0.13 0.13 0.14 0.17 0.19 0.20 0.19 0.21 0.20 0.20 0.23 0.24 0.21 0.20 0.23 0.31 0.27 0.28 0.25 0.21 0.19 0.21 0.21 0.22 0.25 0.26 0.27 0.25 0.24 0.24 0.26 0.25 0.25 0.21 0.19 0.19 0.19 0.17 0.17 0.16 0.14 0.14 0.10 0.11 0.16 0.18 0.18 0.18 0.19 0.19 0.19 0.18 0.16 0.17 0.18 0.18 0.17 0.16 0.16 0.16
0.19 0.18 0.18 0.18 0.17 0.18 0.18 0.19 0.19 0.18 0.17 0.16 0.14 0.16 0.20 0.21 0.10 0.09 0.08 0.08 0.08 0.11 0.11 0.11 0.12 0.12 0.12 0.12 0.12 0.15 0.18 0.18 0.19 0.20 0.19 0.24 0.22 0.22 0.25 0.27 0.27 0.31 0.30 0.30 0.25 0.22 0.19 0.19 0.16 0.17 0.17 0.18 0.21 0.20 0.21 0.24 0.24 0.24 0.24 0.25 0.25 0.22 0.21 0.19 0.16 0.18 0.14 0.14 0.14 0.13 0.16 0.15 0.17 0.17 0.17 0.19 0.18 0.18 0.17 0.14 0.16 0.18 0.18 0.17 0.16 0.15 0.15
0.19 0.18 0.18 0.18 0.18 0.17 0.17 0.16 0.16 0.17 0.18 0.18 0.17 0.18 0.20 0.20 0.19 0.13 0.11 0.09 0.08 0.11 0.14 0.07 0.10 0.11 0.13 0.13 0.15 0.14 0.15 0.17 0.16 0.18 0.23 0.26 0.23 0.25 0.25 0.28 0.32 0.31 0.31 0.25 0.21 0.21 0.19 0.18 0.15 0.14 0.15 0.14 0.12 0.14 0.20 0.18 0.23 0.25 0.25 0.25 0.24 0.23 0.20 0.20 0.17 0.16 0.17 0.15 0.13 0.13 0.13 0.11 0.15 0.18 0.20 0.22 0.22 0.22 0.21 0.18 0.15 0.18 0.18 0.18 0.16 0.14 0.14
0.18 0.18 0.18 0.17 0.17 0.18 0.18 0.19 0.19 0.20 0.20 0.20 0.16 0.16 0.18 0.21 0.18 0.13 0.10 0.09 0.09 0.07 0.10 0.16 0.16 0.13 0.12 0.12 0.14 0.14 0.14 0.16 0.16 0.18 0.20 0.22 0.23 0.26 0.28 0.30 0.31 0.32 0.28 0.25 0.22 0.20 0.18 0.16 0.14 0.14 0.13 0.14 0.16 0.15 0.15 0.18 0.18 0.22 0.24 0.24 0.23 0.23 0.23 0.21 0.19 0.17 0.16 0.15 0.14 0.13 0.12 0.14 0.18 0.18 0.20 0.22 0.23 0.22 0.21 0.16 0.12 0.16 0.17 0.17 0.15 0.14 0.14
0.17 0.17 0.17 0.17 0.17 0.17 0.17 0.18 0.18 0.19 0.18 0.19 0.15 0.16 0.15 0.22 0.20 0.14 0.11 0.12 0.12 0.08 0.17 0.19 0.20 0.17 0.14 0.13 0.16 0.15 0.17 0.16 0.18 0.16 0.17 0.18 0.21 0.23 0.26 0.29 0.31 0.30 0.26 0.22 0.21 0.19 0.17 0.17 0.17 0.16 0.16 0.18 0.16 0.15 0.17 0.17 0.16 0.17 0.20 0.22 0.21 0.20 0.20 0.20 0.17 0.16 0.16 0.15 0.14 0.13 0.15 0.15 0.18 0.20 0.21 0.22 0.22 0.21 0.17 0.10 0.10 0.16 0.17 0.16 0.15 0.14 0.13
0.17 0.17 0.17 0.17 0.17 0.17 0.17 0.17 0.17 0.18 0.18 0.19 0.15 0.14 0.15 0.21 0.22 0.17 0.12 0.10 0.09 0.11 0.18 0.21 0.19 0.14 0.12 0.13 0.13 0.18 0.22 0.20 0.20 0.23 0.20 0.21 0.22 0.22 0.24 0.26 0.23 0.30 0.29 0.20 0.20 0.18 0.17 0.17 0.15 0.15 0.15 0.18 0.19 0.19 0.15 0.17 0.16 0.16 0.17 0.18 0.18 0.18 0.18 0.19 0.16 0.16 0.16 0.15 0.14 0.15 0.16 0.20 0.21 0.21 0.22 0.22 0.22 0.18 0.11 0.09 0.13 0.17 0.16 0.16 0.15 0.14 0.13
0.17 0.17 0.17 0.17 0.17 0.17 0.17 0.17 0.17 0.18 0.17 0.19 0.18 0.14 0.15 0.20 0.20 0.18 0.12 0.11 0.10 0.08 0.17 0.24 0.24 0.18 0.21 0.25 0.20 0.21 0.21 0.20 0.21 0.18 0.18 0.19 0.21 0.26 0.26 0.25 0.26 0.20 0.25 0.20 0.21 0.18 0.17 0.17 0.19 0.18 0.16 0.17 0.19 0.17 0.19 0.17 0.16 0.19 0.19 0.17 0.17 0.17 0.18 0.18 0.18 0.16 0.16 0.16 0.14 0.15 0.16 0.20 0.22 0.22 0.22 0.22 0.18 0.12 0.11 0.16 0.19 0.17 0.16 0.16 0.15 0.13 0.12
0.17 0.17 0.17 0.17 0.17 0.17 0.17 0.16 0.16 0.16 0.17 0.18 0.15 0.11 0.15 0.20 0.22 0.20 0.12 0.10 0.13 0.12 0.17 0.18 0.21 0.18 0.24 0.20 0.18 0.18 0.20 0.20 0.22 0.19 0.19 0.18 0.24 0.26 0.24 0.19 0.24 0.25 0.22 0.22 0.18 0.20 0.18 0.16 0.18 0.20 0.18 0.18 0.19 0.21 0.19 0.19 0.21 0.19 0.19 0.19 0.18 0.18 0.17 0.16 0.16 0.17 0.17 0.17 0.15 0.14 0.12 0.19 0.23 0.22 0.20 0.21 0.15 0.15 0.19 0.19 0.18 0.18 0.16 0.15 0.14 0.13 0.12
0.16 0.17 0.17 0.17 0.17 0.17 0.17 0.16 0.16 0.16 0.15 0.15 0.14 0.11 0.11 0.17 0.19 0.20 0.19 0.12 0.11 0.10 0.13 0.23 0.23 0.21 0.22 0.21 0.23 0.23 0.21 0.18 0.21 0.20 0.21 0.22 0.26 0.24 0.16 0.16 0.20 0.21 0.19 0.20 0.17 0.18 0.20 0.18 0.19 0.19 0.21 0.20 0.20 0.20 0.17 0.18 0.19 0.23 0.21 0.20 0.20 0.21 0.17 0.17 0.18 0.19 0.15 0.15 0.15 0.15 0.19 0.21 0.23 0.21 0.17 0.19 0.19 0.21 0.20 0.19 0.17 0.17 0.16 0.15 0.14 0.12 0.12
0.16 0.17 0.17 0.17 0.16 0.16 0.16 0.16 0.16 0.15 0.15 0.14 0.14 0.12 0.11 0.15 0.18 0.18 0.18 0.16 0.12 0.12 0.16 0.23 0.26 0.24 0.27 0.29 0.29 0.29 0.27 0.27 0.29 0.30 0.24 0.23 0.27 0.24 0.23 0.25 0.23 0.23 0.24 0.25 0.21 0.20 0.22 0.22 0.23 0.20 0.19 0.20 0.22 0.19 0.20 0.17 0.16 0.20 0.23 0.22 0.17 0.22 0.20 0.20 0.18 0.21 0.19 0.18 0.19 0.22 0.23 0.23 0.23 0.22 0.21 0.21 0.22 0.22 0.21 0.19 0.18 0.16 0.15 0.15 0.13 0.11 0.10
0.17 0.17 0.17 0.17 0.17 0.17 0.17 0.16 0.16 0.16 0.15 0.16 0.15 0.12 0.11 0.14 0.15 0.18 0.16 0.13 0.20 0.22 0.25 0.24 0.27 0.27 0.30 0.31 0.34 0.34 0.35 0.37 0.35 0.33 0.32 0.26 0.24 0.26 0.24 0.24 0.23 0.29 0.29 0.29 0.22 0.22 0.23 0.23 0.20 0.22 0.21 0.21 0.20 0.19 0.20 0.19 0.18 0.20 0.19 0.23 0.21 0.24 0.23 0.23 0.22 0.20 0.23 0.23 0.24 0.24 0.23 0.22 0.22 0.22 0.23 0.22 0.22 0.22 0.21 0.19 0.17 0.17 0.16 0.14 0.12 0.11 0.10
0.17 0.17 0.17 0.18 0.18 0.18 0.18 0.18 0.17 0.17 0.16 0.16 0.15 0.13 0.13 0.15 0.16 0.16 0.15 0.16 0.14 0.13 0.18 0.22 0.19 0.16 0.20 0.21 0.28 0.33 0.35 0.34 0.35 0.35 0.37 0.34 0.22 0.23 0.30 0.28 0.31 0.32 0.29 0.30 0.30 0.25 0.24 0.25 0.23 0.24 0.20 0.22 0.23 0.20 0.18 0.17 0.19 0.21 0.21 0.20 0.22 0.23 0.23 0.22 0.20 0.22 0.20 0.17 0.23 0.22 0.21 0.21 0.21 0.21 0.22 0.22 0.22 0.21 0.20 0.19 0.17 0.16 0.15 0.14 0.13 0.11 0.10
0.17 0.18 0.19 0.19 0.19 0.19 0.19 0.20 0.20 0.19 0.20 0.19 0.19 0.20 0.20 0.19 0.20 0.20 0.12 0.11 0.12 0.11 0.10 0.14 0.18 0.23 0.28 0.32 0.33 0.31 0.33 0.37 0.38 0.36 0.36 0.35 0.31 0.24 0.22 0.28 0.33 0.27 0.26 0.29 0.33 0.29 0.27 0.23 0.23 0.23 0.20 0.24 0.24 0.19 0.23 0.20 0.20 0.23 0.19 0.20 0.20 0.20 0.24 0.22 0.22 0.21 0.20 0.19 0.22 0.22 0.23 0.23 0.22 0.22 0.21 0.20 0.20 0.20 0.20 0.19 0.18 0.16 0.15 0.14 0.12 0.10 0.08
0.18 0.19 0.19 0.20 0.20 0.20 0.20 0.20 0.20 0.20 0.19 0.20 0.20 0.17 0.16 0.17 0.22 0.22 0.17 0.16 0.16 0.14 0.11 0.12 0.17 0.29 0.32 0.27 0.23 0.28 0.35 0.36 0.36 0.36 0.35 0.35 0.35 0.34 0.31 0.33 0.33 0.37 0.34 0.33 0.32 0.27 0.27 0.26 0.25 0.24 0.22 0.22 0.28 0.22 0.21 0.23 0.22 0.25 0.22 0.21 0.23 0.22 0.24 0.20 0.22 0.20 0.21 0.22 0.22 0.21 0.21 0.21 0.21 0.21 0.22 0.21 0.21 0.20 0.19 0.18 0.16 0.14 0.14 0.13 0.10 0.09 0.08
0.19 0.19 0.19 0.20 0.21 0.21 0.20 0.20 0.20 0.20 0.19 0.19 0.18 0.19 0.18 0.20 0.25 0.20 0.16 0.15 0.13 0.12 0.14 0.13 0.18 0.23 0.26 0.21 0.27 0.33 0.35 0.35 0.35 0.35 0.35 0.36 0.36 0.36 0.35 0.34 0.32 0.33 0.32 0.30 0.31 0.29 0.28 0.26 0.25 0.23 0.25 0.24 0.28 0.25 0.25 0.24 0.23 0.22 0.21 0.23 0.24 0.22 0.21 0.23 0.22 0.19 0.19 0.19 0.20 0.21 0.18 0.17 0.20 0.21 0.21 0.21 0.22 0.21 0.19 0.16 0.14 0.14 0.13 0.11 0.09 0.07 0.08
0.22 0.22 0.22 0.22 0.22 0.23 0.23 0.22 0.21 0.21 0.20 0.19 0.19 0.19 0.20 0.19 0.22 0.25 0.27 0.25 0.16 0.12 0.12 0.14 0.16 0.19 0.27 0.22 0.29 0.32 0.34 0.34 0.34 0.33 0.33 0.34 0.35 0.35 0.34 0.33 0.33 0.30 0.29 0.28 0.25 0.26 0.26 0.23 0.23 0.27 0.28 0.28 0.25 0.23 0.26 0.27 0.25 0.23 0.22 0.23 0.24 0.22 0.23 0.23 0.21 0.20 0.19 0.22 0.23 0.23 0.22 0.21 0.21 0.21 0.21 0.21 0.21 0.20 0.17 0.15 0.14 0.14 0.13 0.10 0.08 0.07 0.07
0.24 0.24 0.24 0.24 0.24 0.24 0.24 0.25 0.25 0.24 0.24 0.23 0.24 0.20 0.19 0.22 0.24 0.25 0.26 0.25 0.21 0.17 0.18 0.19 0.22 0.20 0.14 0.19 0.29 0.30 0.34 0.33 0.33 0.32 0.32 0.32 0.33 0.33 0.32 0.32 0.30 0.30 0.30 0.29 0.28 0.27 0.25 0.25 0.28 0.26 0.25 0.29 0.26 0.23 0.24 0.20 0.20 0.20 0.22 0.25 0.25 0.25 0.27 0.26 0.24 0.24 0.24 0.24 0.24 0.24 0.23 0.21 0.22 0.22 0.22 0.22 0.22 0.20 0.17 0.15 0.14 0.13 0.11 0.09 0.08 0.08 0.07
0.27 0.27 0.26 0.25 0.24 0.24 0.25 0.25 0.26 0.26 0.26 0.24 0.21 0.19 0.16 0.17 0.22 0.25 0.27 0.26 0.23 0.20 0.16 0.15 0.13 0.16 0.25 0.27 0.23 0.29 0.30 0.33 0.31 0.32 0.31 0.31 0.31 0.32 0.32 0.31 0.31 0.32 0.30 0.28 0.27 0.24 0.27 0.27 0.28 0.30 0.31 0.34 0.25 0.24 0.22 0.22 0.20 0.21 0.25 0.26 0.26 0.27 0.28 0.28 0.28 0.25 0.23 0.25 0.25 0.25 0.24 0.23 0.23 0.23 0.23 0.22 0.21 0.19 0.16 0.14 0.12 0.13 0.10 0.09 0.08 0.07 0.07
0.29 0.29 0.28 0.26 0.25 0.25 0.25 0.26 0.28 0.28 0.26 0.22 0.23 0.16 0.15 0.13 0.17 0.25 0.27 0.28 0.27 0.20 0.18 0.17 0.15 0.20 0.19 0.25 0.27 0.26 0.28 0.30 0.29 0.29 0.30 0.30 0.31 0.31 0.33 0.33 0.32 0.33 0.28 0.29 0.28 0.27 0.29 0.24 0.27 0.28 0.32 0.31 0.28 0.24 0.22 0.21 0.20 0.21 0.24 0.26 0.26 0.26 0.27 0.28 0.28 0.28 0.27 0.26 0.26 0.26 0.25 0.23 0.24 0.23 0.21 0.21 0.20 0.18 0.16 0.13 0.12 0.11 0.09 0.08 0.08 0.08 0.07
0.32 0.32 0.31 0.29 0.28 0.27 0.27 0.26 0.26 0.25 0.24 0.22 0.19 0.17 0.17 0.18 0.21 0.24 0.28 0.29 0.26 0.19 0.16 0.14 0.15 0.16 0.16 0.20 0.25 0.30 0.29 0.30 0.30 0.29 0.29 0.31 0.28 0.32 0.31 0.31 0.28 0.31 0.29 0.27 0.29 0.28 0.25 0.27 0.27 0.27 0.27 0.29 0.29 0.25 0.24 0.22 0.20 0.21 0.25 0.26 0.26 0.27 0.29 0.29 0.28 0.27 0.27 0.27 0.26 0.24 0.22 0.22 0.23 0.21 0.20 0.21 0.18 0.16 0.14 0.11 0.11 0.10 0.09 0.08 0.08 0.08 0.07
0.35 0.35 0.34 0.33 0.32 0.30 0.29 0.28 0.27 0.26 0.24 0.26 0.28 0.28 0.28 0.27 0.27 0.27 0.29 0.27 0.21 0.18 0.19 0.15 0.13 0.15 0.17 0.18 0.24 0.29 0.29 0.29 0.27 0.26 0.24 0.30 0.26 0.29 0.27 0.31 0.30 0.29 0.35 0.29 0.25 0.24 0.28 0.27 0.28 0.26 0.28 0.30 0.26 0.24 0.23 0.21 0.22 0.25 0.26 0.27 0.27 0.28 0.29 0.29 0.28 0.27 0.27 0.27 0.27 0.22 0.20 0.21 0.22 0.23 0.22 0.19 0.16 0.15 0.12 0.10 0.10 0.09 0.08 0.08 0.07 0.07 0.07
0.35 0.35 0.35 0.35 0.34 0.33 0.32 0.31 0.30 0.28 0.28 0.24 0.20 0.21 0.24 0.27 0.27 0.27 0.27 0.23 0.19 0.19 0.18 0.14 0.13 0.14 0.16 0.25 0.21 0.27 0.29 0.23 0.23 0.25 0.22 0.28 0.29 0.28 0.25 0.27 0.29 0.25 0.27 0.26 0.27 0.28 0.28 0.27 0.24 0.26 0.28 0.26 0.27 0.24 0.21 0.23 0.25 0.25 0.26 0.27 0.27 0.29 0.29 0.28 0.28 0.27 0.27 0.27 0.27 0.25 0.24 0.25 0.25 0.24 0.20 0.16 0.14 0.13 0.11 0.10 0.10 0.08 0.08 0.07 0.07 0.07 0.07
0.36 0.35 0.35 0.35 0.34 0.33 0.31 0.30 0.26 0.25 0.22 0.22 0.22 0.23 0.25 0.26 0.26 0.27 0.26 0.21 0.16 0.15 0.15 0.16 0.17 0.15 0.17 0.18 0.19 0.23 0.29 0.25 0.22 0.24 0.22 0.25 0.30 0.26 0.26 0.24 0.27 0.23 0.23 0.32 0.27 0.26 0.24 0.24 0.27 0.25 0.22 0.26 0.24 0.21 0.22 0.24 0.25 0.26 0.27 0.27 0.27 0.29 0.28 0.27 0.27 0.27 0.27 0.27 0.26 0.24 0.25 0.25 0.23 0.21 0.18 0.15 0.14 0.11 0.10 0.09 0.09 0.09 0.07 0.07 0.07 0.07 0.06
0.37 0.37 0.35 0.35 0.36 0.35 0.33 0.27 0.26 0.24 0.22 0.21 0.21 0.25 0.27 0.28 0.27 0.25 0.24 0.23 0.19 0.15 0.15 0.17 0.19 0.18 0.20 0.17 0.18 0.23 0.29 0.24 0.25 0.25 0.25 0.26 0.26 0.30 0.26 0.25 0.22 0.25 0.29 0.26 0.22 0.25 0.23 0.27 0.26 0.22 0.25 0.23 0.21 0.22 0.24 0.25 0.25 0.26 0.27 0.27 0.28 0.29 0.28 0.28 0.27 0.27 0.27 0.26 0.24 0.24 0.24 0.24 0.23 0.20 0.17 0.15 0.12 0.11 0.10 0.09 0.09 0.08 0.08 0.07 0.07 0.07 0.06
0.37 0.37 0.37 0.36 0.35 0.28 0.25 0.24 0.27 0.25 0.23 0.25 0.26 0.27 0.28 0.27 0.26 0.24 0.22 0.20 0.23 0.24 0.19 0.20 0.19 0.21 0.22 0.21 0.23 0.25 0.26 0.20 0.24 0.22 0.24 0.23 0.22 0.27 0.24 0.24 0.22 0.24 0.25 0.23 0.22 0.22 0.25 0.30 0.25 0.22 0.22 0.21 0.22 0.26 0.27 0.27 0.26 0.27 0.27 0.28 0.29 0.31 0.30 0.30 0.29 0.28 0.26 0.25 0.24 0.24 0.24 0.24 0.22 0.20 0.16 0.13 0.11 0.10 0.09 0.09 0.09 0.08 0.08 0.07 0.07 0.07 0.06
0.38 0.39 0.36 0.32 0.29 0.24 0.22 0.23 0.25 0.28 0.30 0.28 0.28 0.23 0.22 0.22 0.17 0.18 0.19 0.18 0.22 0.25 0.25 0.25 0.22 0.24 0.27 0.23 0.20 0.26 0.25 0.22 0.25 0.21 0.21 0.26 0.23 0.22 0.25 0.24 0.24 0.23 0.19 0.20 0.22 0.27 0.26 0.25 0.23 0.21 0.22 0.25 0.27 0.27 0.27 0.28 0.28 0.29 0.29 0.30 0.31 0.31 0.31 0.31 0.29 0.27 0.24 0.22 0.22 0.22 0.22 0.22 0.20 0.18 0.15 0.12 0.11 0.10 0.10 0.10 0.09 0.09 0.08 0.08 0.07 0.07 0.06
0.38 0.37 0.34 0.32 0.27 0.25 0.23 0.24 0.31 0.30 0.27 0.29 0.27 0.20 0.18 0.20 0.17 0.16 0.18 0.21 0.23 0.22 0.27 0.25 0.23 0.26 0.24 0.22 0.23 0.29 0.26 0.23 0.21 0.22 0.19 0.25 0.23 0.19 0.23 0.19 0.24 0.23 0.20 0.20 0.23 0.28 0.21 0.22 0.22 0.22 0.21 0.24 0.25 0.26 0.29 0.29 0.30 0.30 0.31 0.31 0.33 0.33 0.32 0.31 0.29 0.27 0.25 0.23 0.23 0.23 0.23 0.21 0.19 0.17 0.14 0.12 0.11 0.11 0.10 0.10 0.09 0.09 0.08 0.08 0.07 0.07 0.06
0.36 0.31 0.30 0.28 0.27 0.27 0.30 0.33 0.32 0.26 0.26 0.21 0.22 0.20 0.16 0.20 0.18 0.18 0.23 0.20 0.21 0.24 0.26 0.22 0.26 0.26 0.26 0.23 0.22 0.22 0.31 0.25 0.20 0.20 0.21 0.23 0.30 0.20 0.23 0.23 0.23 0.21 0.18 0.18 0.21 0.27 0.21 0.19 0.21 0.21 0.20 0.23 0.25 0.28 0.29 0.29 0.30 0.31 0.31 0.32 0.34 0.34 0.33 0.31 0.29 0.29 0.27 0.26 0.25 0.25 0.25 0.23 0.20 0.16 0.14 0.12 0.11 0.10 0.10 0.10 0.09 0.09 0.08 0.08 0.07 0.07 0.06
0.34 0.33 0.30 0.28 0.29 0.31 0.29 0.30 0.30 0.25 0.22 0.20 0.19 0.20 0.20 0.19 0.23 0.24 0.22 0.21 0.21 0.22 0.27 0.26 0.27 0.25 0.27 0.27 0.26 0.23 0.29 0.31 0.29 0.29 0.26 0.21 0.28 0.26 0.21 0.19 0.24 0.20 0.18 0.18 0.24 0.24 0.22 0.21 0.21 0.20 0.21 0.24 0.26 0.28 0.29 0.30 0.30 0.31 0.32 0.34 0.34 0.34 0.33 0.31 0.30 0.29 0.27 0.25 0.25 0.25 0.24 0.22 0.19 0.16 0.14 0.13 0.12 0.11 0.10 0.10 0.09 0.09 0.08 0.08 0.07 0.07 0.07
0.34 0.33 0.33 0.34 0.34 0.33 0.31 0.26 0.24 0.21 0.22 0.23 0.20 0.20 0.22 0.21 0.24 0.23 0.23 0.20 0.21 0.23 0.25 0.26 0.23 0.24 0.24 0.27 0.26 0.27 0.27 0.32 0.29 0.28 0.24 0.21 0.26 0.22 0.21 0.22 0.23 0.19 0.17 0.22 0.25 0.24 0.22 0.20 0.20 0.20 0.23 0.25 0.27 0.29 0.30 0.30 0.31 0.31 0.33 0.34 0.35 0.35 0.34 0.31 0.29 0.28 0.27 0.26 0.26 0.25 0.23 0.20 0.18 0.16 0.14 0.13 0.12 0.11 0.11 0.10 0.09 0.09 0.08 0.08 0.08 0.07 0.07
0.39 0.37 0.36 0.32 0.30 0.29 0.29 0.22 0.25 0.23 0.20 0.22 0.21 0.20 0.22 0.20 0.22 0.21 0.21 0.25 0.28 0.25 0.25 0.29 0.28 0.31 0.31 0.32 0.28 0.29 0.27 0.31 0.27 0.25 0.24 0.22 0.26 0.25 0.21 0.21 0.21 0.18 0.21 0.26 0.24 0.21 0.20 0.20 0.20 0.22 0.25 0.26 0.28 0.29 0.30 0.31 0.31 0.32 0.33 0.35 0.35 0.35 0.34 0.31 0.29 0.27 0.27 0.26 0.26 0.25 0.22 0.20 0.17 0.16 0.15 0.13 0.12 0.12 0.11 0.10 0.09 0.09 0.08 0.08 0.08 0.07 0.07
0.37 0.36 0.31 0.30 0.27 0.28 0.26 0.20 0.26 0.24 0.23 0.24 0.22 0.20 0.21 0.20 0.22 0.23 0.21 0.23 0.25 0.24 0.27 0.24 0.25 0.25 0.23 0.29 0.26 0.26 0.27 0.29 0.30 0.26 0.25 0.26 0.23 0.21 0.21 0.20 0.20 0.24 0.27 0.24 0.22 0.21 0.21 0.22 0.23 0.24 0.26 0.28 0.29 0.30 0.31 0.31 0.32 0.33 0.34 0.35 0.36 0.36 0.34 0.31 0.29 0.27 0.26 0.27 0.26 0.25 0.22 0.20 0.17 0.16 0.15 0.14 0.13 0.12 0.11 0.10 0.10 0.09 0.09 0.08 0.08 0.07 0.07
0.31 0.30 0.28 0.28 0.26 0.29 0.23 0.22 0.27 0.24 0.20 0.22 0.24 0.22 0.22 0.21 0.22 0.23 0.22 0.27 0.26 0.24 0.28 0.28 0.27 0.26 0.25 0.28 0.29 0.29 0.28 0.24 0.30 0.25 0.21 0.24 0.21 0.22 0.20 0.20 0.24 0.24 0.22 0.20 0.21 0.22 0.22 0.22 0.25 0.26 0.27 0.28 0.29 0.31 0.32 0.32 0.33 0.33 0.34 0.35 0.35 0.35 0.34 0.31 0.28 0.27 0.26 0.26 0.26 0.24 0.22 0.20 0.17 0.16 0.14 0.14 0.13 0.12 0.11 0.10 0.10 0.09 0.09 0.08 0.08 0.07 0.07
0.31 0.28 0.27 0.25 0.24 0.27 0.25 0.23 0.24 0.22 0.24 0.25 0.24 0.25 0.25 0.25 0.25 0.24 0.28 0.28 0.26 0.27 0.26 0.27 0.27 0.27 0.26 0.29 0.25 0.25 0.27 0.26 0.24 0.24 0.25 0.24 0.21 0.20 0.24 0.27 0.26 0.22 0.21 0.21 0.20 0.20 0.21 0.23 0.25 0.26 0.28 0.29 0.31 0.32 0.32 0.33 0.34 0.34 0.35 0.34 0.35 0.35 0.33 0.31 0.28 0.27 0.27 0.26 0.26 0.24 0.22 0.20 0.18 0.16 0.14 0.14 0.13 0.12 0.11 0.11 0.10 0.09 0.09 0.08 0.08 0.08 0.07
0.31 0.30 0.28 0.28 0.25 0.26 0.28 0.23 0.24 0.25 0.26 0.26 0.28 0.28 0.27 0.27 0.27 0.27 0.28 0.27 0.25 0.27 0.27 0.29 0.28 0.28 0.27 0.27 0.27 0.27 0.27 0.27 0.23 0.25 0.26 0.22 0.22 0.24 0.27 0.23 0.21 0.22 0.20 0.20 0.21 0.22 0.23 0.25 0.26 0.28 0.29 0.30 0.32 0.32 0.32 0.33 0.34 0.34 0.35 0.36 0.36 0.35 0.34 0.30 0.28 0.27 0.27 0.27 0.26 0.24 0.22 0.20 0.18 0.16 0.15 0.13 0.13 0.12 0.12 0.11 0.10 0.10 0.09 0.09 0.08 0.08 0.07
0.29 0.31 0.30 0.24 0.23 0.25 0.24 0.26 0.29 0.29 0.30 0.29 0.29 0.29 0.29 0.28 0.26 0.24 0.26 0.27 0.27 0.27 0.26 0.27 0.26 0.28 0.28 0.31 0.29 0.25 0.26 0.26 0.24 0.24 0.26 0.24 0.25 0.24 0.23 0.23 0.22 0.23 0.23 0.22 0.23 0.25 0.25 0.27 0.28 0.29 0.31 0.32 0.32 0.32 0.32 0.33 0.33 0.34 0.35 0.36 0.36 0.36 0.34 0.30 0.28 0.27 0.27 0.26 0.25 0.24 0.22 0.20 0.18 0.16 0.15 0.14 0.13 0.12 0.12 0.11 0.11 0.10 0.09 0.09 0.09 0.08 0.07
0.34 0.31 0.27 0.27 0.27 0.27 0.27 0.29 0.28 0.27 0.28 0.30 0.30 0.29 0.28 0.26 0.25 0.26 0.27 0.28 0.27 0.27 0.29 0.28 0.28 0.27 0.25 0.28 0.26 0.25 0.24 0.26 0.23 0.23 0.26 0.25 0.23 0.21 0.22 0.21 0.22 0.21 0.25 0.26 0.26 0.26 0.27 0.28 0.30 0.31 0.32 0.33 0.33 0.33 0.33 0.34 0.34 0.34 0.35 0.36 0.37 0.36 0.34 0.30 0.28 0.28 0.27 0.27 0.25 0.24 0.22 0.20 0.18 0.16 0.15 0.14 0.13 0.12 0.12 0.11 0.11 0.10 0.10 0.09 0.09 0.08 0.08
0.32 0.31 0.32 0.29 0.28 0.28 0.29 0.30 0.28 0.26 0.27 0.28 0.28 0.27 0.28 0.27 0.26 0.27 0.30 0.28 0.29 0.29 0.30 0.30 0.32 0.27 0.27 0.26 0.24 0.25 0.25 0.26 0.25 0.26 0.25 0.23 0.23 0.24 0.23 0.22 0.23 0.24 0.26 0.27 0.27 0.28 0.30 0.31 0.32 0.32 0.32 0.33 0.33 0.33 0.33 0.34 0.35 0.35 0.36 0.37 0.38 0.37 0.35 0.31 0.29 0.28 0.27 0.27 0.25 0.24 0.22 0.21 0.19 0.17 0.15 0.14 0.13 0.13 0.12 0.12 0.11 0.10 0.10 0.09 0.09 0.08 0.08
0.34 0.32 0.32 0.34 0.29 0.28 0.29 0.26 0.25 0.25 0.26 0.26 0.26 0.27 0.27 0.26 0.27 0.27 0.32 0.30 0.31 0.29 0.28 0.26 0.27 0.26 0.25 0.25 0.24 0.22 0.24 0.28 0.26 0.25 0.25 0.24 0.26 0.25 0.24 0.24 0.27 0.29 0.29 0.30 0.31 0.31 0.32 0.33 0.33 0.33 0.33 0.33 0.34 0.34 0.35 0.35 0.35 0.35 0.36 0.37 0.38 0.38 0.35 0.32 0.29 0.28 0.28 0.27 0.26 0.24 0.22 0.20 0.19 0.17 0.16 0.15 0.14 0.13 0.12 0.12 0.11 0.10 0.10 0.09 0.09 0.09 0.08
0.29 0.27 0.28 0.31 0.32 0.32 0.32 0.31 0.31 0.30 0.30 0.30 0.30 0.30 0.31 0.29 0.31 0.31 0.35 0.33 0.31 0.28 0.26 0.29 0.27 0.26 0.24 0.22 0.24 0.27 0.28 0.27 0.25 0.26 0.25 0.27 0.29 0.27 0.28 0.30 0.32 0.32 0.32 0.32 0.32 0.33 0.33 0.34 0.34 0.34 0.34 0.34 0.34 0.34 0.35 0.35 0.35 0.35 0.36 0.37 0.38 0.37 0.35 0.32 0.29 0.28 0.28 0.27 0.26 0.24 0.23 0.21 0.20 0.18 0.16 0.15 0.14 0.13 0.12 0.11 0.11 0.11 0.10 0.10 0.09 0.09 0.08
Wind_Speed
19 18 17 16 15 14 13 12 11 11 11 11 11 11 11 12 11 9 10 11 12 12 11 10 10 11 10 10 10 10 9 10 10 11 12 12 12 14 14 14 15 16 16 17 18 19 18 18 20 21 21 22 23 24 25 25 27 27 28 28 29 28 28 30 33 33 32 32 31 30 30 31 32 33 33 33 33 33 32 33 36 36 35 35 35 37 38
18 17 16 15 14 13 13 13 13 13 13 13 13 13 13 13 12 11 11 10 10 11 10 9 10 10 9 10 10 10 10 10 11 11 12 12 12 13 14 14 15 16 17 17 18 19 19 19 20 21 22 23 24 24 25 26 27 27 28 29 30 29 28 31 34 35 35 35 34 33 34 34 34 34 35 34 35 35 34 34 35 35 36 35 34 37 41
17 16 15 14 14 14 13 14 13 13 13 13 13 13 12 12 12 12 12 12 12 11 10 10 10 9 10 11 10 10 10 10 11 11 12 12 12 13 14 14 15 16 17 17 18 19 20 20 21 22 22 23 24 25 25 26 27 28 28 29 30 29 29 30 31 31 33 35 34 36 38 38 36 36 36 36 35 35 35 36 35 35 39 37 33 38 45
16 15 15 14 13 13 13 13 13 13 12 12 12 11 10 10 10 10 12 13 13 12 10 11 11 9 10 11 10 10 10 10 11 11 11 12 13 13 14 15 15 16 17 18 19 19 20 20 22 22 23 23 24 25 25 26 27 28 29 30 30 30 30 30 28 28 31 33 35 37 39 39 39 40 40 38 37 35 35 36 35 37 42 41 38 41 49
16 15 15 14 13 13 13 13 13 12 12 11 11 11 10 10 9 9 9 10 12 12 11 11 10 9 9 10 10 10 10 10 11 11 11 12 13 14 15 15 16 17 18 18 19 20 21 21 21 22 22 23 25 25 25 26 27 28 30 31 31 31 32 31 29 30 32 34 37 39 38 38 39 40 41 40 38 36 35 36 38 40 41 43 45 47 51
15 15 14 14 14 13 13 13 12 11 11 10 10 10 10 9 9 9 9 9 9 10 10 10 11 11 10 10 10 10 11 11 10 11 12 13 13 14 15 16 17 16 17 18 19 20 22 22 21 22 23 24 26 27 26 27 28 29 30 31 31 31 32 32 32 33 34 35 37 39 38 38 38 39 39 39 38 38 38 38 40 40 39 43 50 52 53
15 14 14 13 13 13 13 12 12 11 11 10 11 11 10 10 10 9 9 9 9 9 9 10 11 11 11 10 10 10 10 11 10 11 12 13 14 14 15 16 17 17 17 18 19 21 22 23 22 22 24 25 26 27 27 27 29 30 30 31 31 31 32 33 34 35 36 37 38 38 38 38 39 39 38 39 39 40 40 40 41 41 41 46 51 54 53
15 14 14 13 13 13 13 13 12 12 11 11 11 11 10 9 9 9 10 10 9 9 9 9 10 10 10 10 10 10 10 10 10 11 12 13 14 15 15 16 17 17 17 17 19 19 20 21 22 22 23 25 25 25 26 28 30 31 31 32 32 33 34 34 35 37 38 38 39 39 38 39 40 39 39 41 42 41 40 41 42 44 47 50 53 54 52
15 15 14 14 13 13 12 12 12 11 11 10 10 10 10 10 9 9 10 10 9 9 9 9 9 10 10 10 10 10 10 10 10 11 12 12 13 14 15 15 17 18 18 18 19 20 19 20 21 22 23 24 24 25 26 28 30 32 32 32 33 34 34 35 37 38 39 40 40 42 43 41 38 39 42 43 42 41 41 42 43 46 51 54 54 52 50
16 15 14 14 13 13 12 11 10 10 10 10 10 9 9 10 9 9 9 9 8 9 9 9 9 9 9 10 10 10 10 10 11 12 12 12 13 14 14 15 17 19 19 19 20 21 21 21 22 22 22 23 24 25 27 28 30 31 32 33 33 34 35 36 37 37 40 42 42 43 44 41 38 41 42 42 42 43 43 45 47 48 50 52 51 50 50
16 15 14 13 12 12 11 10 9 9 9 8 9 8 7 8 8 8 9 9 8 8 8 9 9 9 9 10 10 11 11 11 11 12 12 13 13 14 15 16 17 18 19 20 21 22 22 22 23 22 23 24 25 25 26 28 29 30 31 33 34 34 35 36 35 36 40 43 44 43 40 38 40 41 40 39 42 45 48 50 51 51 50 49 49 49 51
15 14 13 12 11 11 10 9 8 8 8 7 7 7 6 7 7 7 8 8 7 8 9 8 8 8 9 10 10 10 10 11 11 12 12 13 14 15 16 16 17 18 19 21 23 23 23 23 23 23 24 25 26 26 27 28 30 31 32 33 34 35 36 36 35 36 38 41 43 42 38 39 42 41 38 39 42 46 50 52 52 52 51 49 48 51 54
14 13 12 12 11 10 9 8 8 7 7 7 7 7 6 6 7 7 7 8 7 8 8 8 8 8 9 10 10 11 11 11 12 12 13 13 14 15 16 16 17 19 20 22 23 23 23 23 24 24 25 27 27 27 27 28 30 31 32 33 34 36 36 36 36 36 38 41 42 39 39 43 43 40 40 43 46 49 53 54 53 51 48 48 51 54 56
12 12 11 10 10 10 9 8 7 6 6 7 6 6 6 6 6 6 7 7 7 7 7 8 8 9 9 10 10 11 11 12 12 13 13 14 14 15 16 17 18 20 21 22 23 23 23 24 25 26 26 28 29 28 28 29 30 31 33 34 35 35 35 37 37 36 38 41 41 40 42 44 41 41 44 47 49 52 54 54 52 48 46 51 56 57 57
11 11 10 10 9 9 8 8 8 7 7 7 6 6 6 6 6 6 6 6 6 7 7 7 7 7 9 10 10 11 12 13 13 13 13 14 15 15 16 17 19 20 21 22 22 23 23 24 26 27 28 29 30 28 29 30 31 32 33 34 35 36 36 36 37 37 38 40 40 41 42 41 40 43 46 47 50 54 54 52 49 46 50 58 59 58 59
11 10 10 9 8 8 7 7 7 7 6 7 6 6 6 6 6 6 6 6 6 7 7 6 7 8 9 10 11 11 12 12 13 14 14 15 15 15 17 18 19 20 21 22 22 23 24 25 25 26 27 28 29 29 29 31 32 33 34 35 36 37 37 35 36 38 39 39 39 38 38 39 42 46 49 50 53 55 54 50 48 49 57 62 61 59 61
10 10 9 9 8 7 7 6 6 6 5 5 5 5 6 6 6 6 6 6 7 7 6 6 7 8 9 10 11 11 12 12 13 13 14 15 15 16 17 18 19 19 21 22 23 23 24 25 25 26 27 27 29 29 30 32 33 34 35 37 37 38 38 37 37 39 40 39 38 38 37 39 42 47 51 53 56 56 52 49 50 56 62 62 61 61 62
10 10 9 9 8 7 7 6 6 6 5 5 5 5 6 6 6 6 6 6 7 7 6 6 7 8 9 10 11 11 12 13 13 13 14 15 15 16 17 18 18 20 21 22 22 23 24 25 26 26 26 28 29 30 31 32 33 34 36 37 37 38 38 38 38 39 40 40 40 40 40 40 43 47 52 55 57 55 50 48 53 60 63 62 62 62 62
9 9 9 8 7 7 7 6 6 5 4 4 4 5 6 7 6 5 5 6 7 6 6 7 8 9 10 11 11 12 12 13 13 13 14 15 15 16 17 17 18 20 21 21 22 23 24 25 26 26 26 28 30 30 31 32 32 33 36 37 38 38 38 38 39 39 40 40 41 42 41 42 47 52 54 55 54 51 50 53 57 61 62 62 63 63 62
9 8 8 8 7 7 6 6 6 5 5 4 5 5 6 7 6 5 5 5 6 6 6 8 8 9 11 11 12 12 13 13 14 13 13 14 16 17 17 18 19 20 21 22 23 24 24 25 26 26 26 28 29 30 31 32 32 33 35 36 37 37 39 39 39 40 41 40 40 40 40 44 51 55 54 52 51 50 52 57 60 60 62 62 63 62 62
8 8 8 8 8 7 6 6 6 5 5 5 5 5 6 7 7 6 5 5 5 6 6 7 9 10 11 12 12 13 13 13 14 14 14 14 16 17 16 17 19 20 20 21 23 24 24 25 26 26 27 28 29 30 31 32 33 33 34 34 35 36 38 39 39 39 40 40 39 39 41 46 51 53 51 50 52 53 55 58 59 60 62 62 62 63 63
8 8 8 8 8 8 7 6 5 5 5 5 5 5 5 6 7 7 7 6 7 7 6 7 9 10 11 12 13 13 14 14 14 14 14 15 16 17 16 17 18 19 20 21 22 23 24 24 25 26 27 28 30 30 31 32 32 34 35 35 35 36 37 38 39 39 38 39 40 42 44 48 51 51 50 51 54 55 56 58 59 60 62 62 63 63 63
8 8 8 8 8 8 7 6 6 5 5 5 5 5 4 5 5 6 6 6 7 8 7 8 9 10 11 13 13 14 14 14 14 15 15 15 16 16 17 17 18 19 20 21 22 22 23 24 25 26 27 29 30 31 32 32 32 33 35 35 35 37 37 38 39 40 40 40 42 45 47 51 53 51 51 52 55 56 57 59 59 61 62 62 62 63 63
8 8 8 8 8 7 7 6 6 5 5 5 5 5 4 4 5 5 6 6 6 6 7 9 9 10 11 12 13 14 15 15 15 15 15 15 15 16 17 17 18 18 19 20 21 22 23 24 25 27 28 29 29 30 31 32 32 33 35 36 37 38 39 39 40 42 43 43 44 46 49 52 53 52 53 55 56 57 58 59 60 62 62 61 62 63 64
8 8 8 7 7 7 6 6 5 5 4 5 5 5 4 4 4 4 5 5 5 5 7 9 9 10 11 12 13 14 14 15 15 15 15 16 16 16 16 17 18 18 19 20 21 22 24 25 25 27 28 29 30 30 31 31 32 33 35 36 38 39 40 41 42 43 44 44 45 48 50 50 50 52 55 57 58 58 59 60 62 62 62 61 63 64 64
8 8 7 7 7 6 6 5 5 4 4 4 4 4 4 5 5 5 4 5 5 6 7 8 9 9 11 12 13 14 14 15 15 15 15 16 16 16 16 17 18 18 19 20 21 22 23 25 26 27 28 30 30 30 30 31 33 34 35 36 38 39 41 42 43 44 44 45 47 51 52 51 51 54 56 57 58 59 61 62 62 62 62 63 65 65 64
9 8 7 7 6 5 5 4 4 4 4 4 4 5 4 5 5 5 4 4 6 7 7 7 8 9 10 12 13 14 14 15 15 15 16 16 16 16 17 17 17 18 19 20 21 22 24 25 26 27 28 30 30 30 31 32 33 34 35 37 38 40 42 43 44 45 46 46 49 52 52 52 54 56 58 58 58 60 61 62 63 63 63 65 66 67 65
10 9 8 7 7 6 5 4 3 3 3 3 4 5 5 5 6 6 5 5 6 5 5 5 7 8 10 12 14 14 14 15 15 15 16 16 16 16 17 17 17 18 19 20 21 22 24 25 26 27 29 30 31 31 32 33 34 35 36 38 39 41 42 43 44 45 46 47 49 50 50 51 54 57 58 58 59 60 61 62 62 63 64 65 66 66 65
10 10 9 8 7 6 6 5 5 4 4 4 4 4 5 6 7 7 7 6 5 4 4 6 7 8 10 12 14 14 14 15 15 15 16 16 16 16 17 17 17 18 19 20 21 22 24 25 25 27 29 30 31 31 32 33 34 35 36 38 40 41 42 43 44 44 45 47 49 50 50 51 54 56 57 58 59 60 60 61 62 62 64 66 66 65 65
10 10 10 9 8 7 6 5 5 5 5 5 4 5 5 6 6 7 7 6 5 4 4 6 7 9 10 11 13 14 14 15 15 16 16 16 16 16 16 17 17 18 19 20 21 22 23 25 26 27 29 30 31 31 32 33 33 35 37 39 41 42 43 43 43 44 45 47 48 50 51 51 53 54 56 57 59 59 59 60 61 62 64 66 65 64 65
11 10 10 9 8 7 6 5 5 4 5 5 5 5 5 5 5 6 7 5 5 4 5 6 8 9 10 11 13 14 14 14 15 16 16 16 16 16 16 17 17 18 19 20 21 22 23 25 26 27 29 31 31 31 32 33 34 36 38 40 42 42 43 44 44 44 46 47 49 50 50 51 53 55 56 58 60 59 59 60 61 62 64 65 64 64 65
10 10 9 8 7 7 6 5 5 4 4 3 3 3 3 4 5 6 6 5 5 5 5 6 8 9 10 11 12 14 15 14 15 16 16 16 16 16 16 17 17 18 19 20 21 22 24 25 26 27 29 30 31 32 33 33 34 37 40 41 42 43 43 44 44 45 46 49 50 51 51 52 54 55 57 59 59 59 60 61 61 62 63 64 64 64 65
10 10 9 8 7 6 6 5 5 4 3 3 3 3 3 4 4 5 5 4 5 5 5 7 8 9 10 11 12 14 15 15 15 16 16 16 16 16 16 17 18 18 20 20 21 22 24 25 26 27 29 30 31 32 33 33 34 38 41 42 42 43 43 44 45 45 47 49 50 50 51 53 54 55 57 58 59 59 60 61 61 62 63 64 64 65 66
10 9 8 7 7 6 5 5 4 3 3 3 3 3 4 5 5 5 4 4 5 6 6 7 8 9 11 12 12 13 15 15 15 16 16 16 17 17 16 17 18 19 20 20 21 22 24 25 26 27 29 30 31 32 33 34 36 39 41 42 42 43 44 44 45 46 47 49 49 49 50 52 53 55 57 58 58 59 60 61 61 62 63 63 64 65 66
10 9 8 7 6 6 6 5 4 4 4 3 3 3 4 5 5 5 5 5 5 5 7 8 9 10 12 13 12 14 15 15 15 16 16 16 17 17 17 17 18 19 19 20 21 22 24 25 26 27 28 30 31 32 33 35 38 40 41 42 43 43 43 44 45 46 48 49 50 50 51 53 53 55 56 57 57 59 60 61 62 63 63 64 65 66 66
10 9 8 6 6 6 6 6 5 5 4 4 4 4 5 4 4 5 6 6 6 5 6 8 9 10 11 12 12 14 15 15 16 16 16 16 17 17 17 17 18 19 20 21 21 23 25 25 26 27 29 30 31 32 34 36 38 40 41 42 42 43 43 44 45 47 48 49 49 50 52 53 53 55 56 56 57 59 60 61 62 63 63 64 65 65 66
10 9 8 7 6 6 6 6 6 5 5 5 5 5 5 4 4 5 6 7 7 7 7 8 9 10 11 11 13 15 15 15 16 16 16 16 17 17 17 18 18 19 20 21 22 23 25 26 26 27 28 30 31 32 34 36 38 39 40 41 42 42 43 44 45 47 48 49 49 50 51 52 54 55 56 56 58 59 60 61 62 62 63 64 64 65 66
10 9 8 7 7 6 6 7 6 6 5 5 5 5 5 5 5 5 6 7 7 8 8 8 9 10 11 12 13 15 15 15 16 16 16 17 17 17 17 18 18 19 20 21 22 23 25 27 27 28 29 31 32 33 35 37 38 39 40 41 41 42 43 44 46 47 49 49 50 52 53 54 55 56 56 57 58 58 59 60 61 61 62 63 64 64 65
10 9 8 7 7 6 6 6 6 6 5 5 5 5 6 6 6 6 7 7 8 8 9 9 9 10 11 12 13 15 15 15 16 16 16 17 17 18 18 18 19 20 21 21 22 24 26 27 28 29 30 31 32 33 35 37 38 39 40 41 41 42 43 44 46 47 48 49 50 52 53 54 55 56 56 56 57 58 59 60 60 61 62 62 63 64 65
10 9 8 7 6 6 6 6 6 5 5 5 6 6 6 6 6 6 7 7 8 8 9 9 10 11 12 12 13 14 15 15 15 15 16 17 17 17 18 18 19 20 21 22 23 24 25 27 28 29 31 31 31 32 35 37 38 39 40 40 41 42 43 44 45 47 47 48 50 51 52 53 54 55 55 56 56 57 58 59 60 61 62 62 63 64 64
10 8 8 7 6 6 6 6 6 6 6 6 6 6 7 7 7 7 7 7 8 9 9 10 11 12 13 13 13 14 15 16 15 15 16 17 17 17 18 19 20 20 21 22 24 25 25 26 28 29 30 31 31 33 35 37 38 39 40 40 41 42 42 44 45 46 47 48 50 51 52 53 54 54 55 56 56 57 58 59 60 60 61 62 63 63 63
9 8 6 6 6 6 6 6 7 7 7 7 7 7 7 7 8 8 7 7 8 9 10 10 11 12 13 14 14 14 15 15 15 15 16 17 17 17 18 19 20 21 21 23 24 25 26 27 28 30 31 31 31 33 35 36 37 38 39 40 40 41 42 43 44 45 46 48 50 51 52 52 53 54 55 55 56 56 57 58 59 60 61 61 62 62 63
9 7 6 6 6 7 7 8 8 7 7 7 7 8 8 8 8 7 8 8 8 9 10 11 12 13 14 14 14 14 15 15 15 15 16 17 18 18 18 19 20 21 22 23 25 25 26 27 28 30 31 31 32 34 35 36 37 38 39 39 40 41 42 43 43 44 46 48 49 51 51 52 53 53 54 55 56 56 57 58 59 59 60 61 61 62 63
9 8 7 7 8 8 8 8 8 8 8 8 8 8 8 8 8 7 8 8 9 9 10 11 12 13 14 14 15 15 15 15 15 16 16 18 18 18 19 20 21 22 23 24 25 25 26 27 29 30 31 31 33 34 35 36 37 38 38 39 40 41 41 42 43 44 45 47 49 50 51 52 52 53 54 54 55 56 56 57 58 59 60 61 61 61 62
9 9 8 8 9 9 8 8 9 8 8 8 8 7 7 8 7 7 8 8 9 10 11 12 12 13 14 15 15 15 15 15 16 16 17 18 19 19 19 20 21 22 23 24 26 27 28 29 30 30 31 32 33 34 35 35 36 37 38 39 40 40 41 42 42 43 45 47 49 50 51 51 52 53 53 54 54 55 56 57 58 59 60 60 60 61 62
9 9 8 7 8 9 8 7 8 8 8 8 8 7 7 7 7 7 8 8 9 10 11 12 13 13 14 15 15 15 15 16 16 16 17 18 19 19 20 21 22 23 24 25 27 28 28 29 30 30 31 32 33 34 35 35 36 37 38 39 39 40 40 41 42 43 44 46 48 49 50 51 51 52 53 53 54 55 55 56 57 58 59 60 60 61 62
10 9 8 8 8 9 8 8 8 8 7 7 8 7 7 8 8 8 9 9 10 11 12 13 13 14 14 15 15 15 15 16 16 17 18 18 19 20 21 22 22 23 24 25 27 28 28 29 30 30 31 32 33 34 34 35 36 37 38 38 39 39 40 40 41 42 44 46 48 49 50 50 51 52 52 53 54 54 55 55 56 58 59 59 60 61 61
10 10 9 8 8 9 8 8 8 8 8 8 8 8 8 8 9 10 10 10 10 11 12 13 14 14 14 15 15 15 16 16 17 17 18 19 20 21 22 23 24 24 25 25 27 28 28 29 30 31 32 32 33 33 34 35 35 36 37 38 38 39 39 40 41 42 43 45 47 48 49 50 51 51 52 53 53 54 54 55 56 57 58 58 59 60 61
10 10 9 8 8 8 8 8 8 9 9 8 8 9 9 9 10 11 11 11 12 13 13 14 14 14 15 15 16 16 16 17 17 18 19 20 21 21 22 23 25 26 26 26 27 28 29 30 30 31 32 32 33 33 34 34 35 36 37 37 38 39 39 39 40 41 43 45 46 47 48 49 50 51 52 52 53 53 54 54 55 56 57 58 59 60 60
10 10 9 9 9 9 8 8 9 9 10 10 10 10 10 10 11 12 12 12 12 13 14 14 15 15 15 16 16 17 17 17 18 18 20 20 21 21 23 24 25 26 27 27 28 29 30 30 30 31 32 33 33 33 34 34 35 36 36 37 38 38 38 39 40 41 43 44 46 47 48 49 50 50 51 52 52 53 53 53 54 56 57 57 58 59 60
10 10 10 9 9 9 8 8 9 10 10 10 11 11 11 11 12 12 12 12 13 14 14 15 15 15 16 16 17 17 17 18 18 19 20 21 21 22 23 24 25 26 27 29 29 30 30 30 31 32 33 33 33 33 34 34 35 36 36 37 37 38 38 39 40 41 42 44 45 46 47 48 49 50 50 51 52 52 52 53 54 55 56 57 57 59 59
10 10 10 10 10 9 9 9 10 10 10 11 11 11 12 12 13 13 13 13 13 14 15 15 16 16 17 17 17 18 18 19 19 20 21 21 21 22 23 25 27 28 29 30 31 31 31 31 32 32 32 33 33 33 33 34 34 35 35 36 37 37 38 38 39 40 42 43 44 45 46 47 48 49 50 51 51 52 52 52 53 54 55 56 57 58 59
Wind_Direction
122 122 122 121 120 118 116 112 109 107 105 103 101 97 93 92 91 80 71 78 83 78 71 61 59 64 62 58 57 53 51 48 39 34 32 28 25 23 20 17 16 13 10 9 8 6 5 4 3 2 359 359 358 357 358 357 356 356 353 352 352 350 350 346 342 344 343 342 348 350 347 345 343 340 339 338 336 335 331 328 329 329 327 328 325 323 328
121 121 120 119 117 115 113 110 108 105 102 101 99 97 94 91 86 76 70 75 79 77 75 68 62 61 59 56 51 47 47 44 38 33 28 25 25 23 19 16 14 12 10 10 7 5 5 3 2 2 360 359 359 358 357 357 356 356 354 353 352 351 350 347 345 346 347 348 350 348 346 345 342 339 339 339 336 334 332 331 332 330 327 328 325 323 327
119 119 118 117 115 114 112 110 106 103 102 101 99 98 95 89 83 75 68 70 75 75 75 75 69 62 59 55 47 42 42 39 36 33 28 25 25 22 17 14 13 11 10 8 5 4 5 2 2 3 359 358 359 358 357 357 357 356 354 353 352 351 350 349 348 346 346 346 346 344 342 342 341 339 339 339 337 335 334 334 333 330 328 329 326 322 324
117 117 117 117 115 113 112 110 106 103 102 102 99 96 92 88 82 75 67 66 69 68 67 69 67 62 59 51 43 42 40 33 31 31 26 23 23 19 15 12 12 11 10 8 4 3 3 2 1 1 358 357 358 358 358 358 358 357 356 354 354 353 351 350 348 344 341 340 338 339 341 339 338 338 337 338 339 337 337 336 333 329 328 328 328 324 324
115 115 114 114 112 111 110 108 105 102 100 100 97 90 86 85 81 76 71 65 63 60 56 59 60 58 56 49 41 39 35 29 28 27 24 21 20 17 15 13 12 9 9 8 4 1 2 2 1 359 358 357 357 358 360 359 358 358 357 355 355 354 350 349 348 343 340 338 337 339 341 338 335 336 336 338 340 339 338 335 331 331 330 328 330 329 327
114 113 112 111 110 109 108 105 103 101 99 98 95 85 79 82 82 77 74 68 62 57 53 56 58 52 48 45 40 37 33 29 27 23 20 19 17 15 13 11 10 7 6 7 4 0 2 2 0 360 359 358 358 358 0 0 359 359 358 355 356 355 349 348 349 346 342 341 340 340 341 339 338 337 337 338 339 339 337 334 333 334 332 328 330 330 328
112 111 110 109 110 109 107 104 102 100 97 95 92 86 81 84 83 72 67 68 67 61 55 58 58 48 42 40 36 36 35 29 24 20 19 17 14 14 12 6 5 5 5 7 3 0 1 359 357 360 359 358 359 359 359 360 359 359 358 355 356 354 350 349 350 347 344 344 342 342 342 342 341 339 339 340 340 339 338 337 336 336 332 329 330 330 329
109 109 108 107 107 107 105 103 102 99 96 91 88 85 82 82 81 76 70 65 60 57 52 52 52 42 36 37 33 32 34 27 20 20 21 16 11 12 10 3 1 3 5 6 2 358 359 356 354 358 359 358 359 359 358 358 358 358 358 356 356 354 351 351 352 348 346 346 346 346 345 343 341 341 341 342 341 342 342 341 340 338 334 332 332 330 331
105 106 106 106 106 105 104 102 100 96 93 89 84 82 80 78 79 81 76 60 46 48 46 46 48 38 30 33 30 26 27 23 20 19 17 16 12 10 9 4 2 5 6 4 359 356 358 355 352 354 356 355 356 357 357 358 357 357 358 357 356 355 352 353 353 349 347 348 349 347 345 344 344 344 344 344 345 345 344 343 341 339 335 334 334 334 335
101 102 103 104 103 104 102 100 97 93 90 87 83 81 80 76 71 69 69 57 41 43 42 39 43 36 27 29 28 24 23 20 21 19 13 12 11 8 8 7 5 5 4 1 358 356 356 354 352 354 354 354 354 353 354 357 357 357 358 357 356 356 353 352 352 349 346 348 349 347 346 348 350 348 346 346 346 345 344 343 341 339 337 336 336 337 336
96 96 98 99 99 100 100 98 94 90 86 82 81 82 77 72 66 58 59 54 38 37 40 35 36 34 27 26 25 23 22 18 17 18 12 10 9 7 8 8 5 3 0 359 358 357 355 355 355 356 357 355 355 354 354 356 357 358 359 357 356 357 355 352 351 348 345 347 349 349 350 352 351 349 348 348 347 345 344 343 341 339 339 339 338 337 337
92 92 92 93 94 95 96 95 90 85 82 79 79 78 69 64 61 52 54 54 35 31 39 34 29 30 26 24 23 21 19 15 14 14 11 8 7 6 6 7 4 1 359 358 358 356 357 358 358 358 359 358 357 357 357 357 357 358 359 358 357 357 355 352 352 349 346 348 351 352 353 351 348 349 350 348 346 344 342 341 341 340 341 342 341 339 337
88 87 88 88 90 90 90 89 85 80 78 74 70 70 65 58 54 48 52 54 35 27 37 34 25 27 26 22 21 18 14 12 11 10 8 7 6 4 3 4 2 360 358 357 358 359 360 0 0 0 360 359 359 358 357 356 356 357 358 358 357 356 355 353 352 351 349 351 353 352 347 346 348 351 350 347 346 345 343 342 343 344 345 344 341 339 338
84 83 83 84 85 86 84 82 80 74 73 71 65 63 57 49 49 46 47 48 33 22 34 35 23 23 23 17 18 16 10 9 9 8 6 6 4 1 1 1 360 358 358 358 360 1 1 1 2 1 359 0 1 358 357 356 356 357 357 356 357 357 356 355 353 353 352 350 349 347 345 348 353 354 351 349 348 346 344 342 343 347 347 344 341 340 339
79 79 80 81 82 83 80 76 72 67 67 67 62 56 48 41 42 41 40 49 44 24 22 25 20 21 19 12 13 13 8 7 8 6 4 4 3 1 0 360 359 359 359 0 1 2 2 3 3 1 360 1 359 356 356 357 356 357 357 357 359 358 357 356 353 353 353 350 348 349 349 352 354 352 350 349 347 344 343 342 344 347 346 344 342 341 341
74 75 77 79 80 79 74 67 61 56 56 57 54 50 44 37 39 42 40 45 45 26 15 19 20 20 16 10 10 11 8 6 6 4 2 1 1 1 0 359 0 0 1 2 2 3 4 3 3 1 360 359 358 355 356 356 355 356 358 358 359 358 357 358 355 353 353 351 349 350 349 349 351 349 348 348 346 343 343 344 345 347 346 344 344 342 342
70 69 71 73 73 69 63 55 50 45 44 46 45 40 36 32 34 38 34 32 35 26 15 18 18 14 12 8 7 8 7 5 6 5 2 360 360 0 360 360 1 1 2 3 1 3 4 3 3 2 359 358 358 356 355 356 355 355 357 357 358 358 357 358 356 353 353 352 350 350 350 348 349 349 348 347 345 345 346 347 347 347 346 345 344 343 343
64 62 62 62 60 57 52 47 44 43 44 47 44 36 31 25 22 28 31 32 33 22 9 12 14 8 8 7 5 6 4 3 4 3 360 360 1 360 359 360 1 0 1 2 2 2 3 2 2 3 359 357 359 358 356 356 355 355 356 356 357 358 358 358 356 354 353 353 351 350 351 350 350 349 348 347 346 349 352 349 345 345 345 345 345 344 343
58 55 52 51 49 47 44 39 34 33 32 32 32 26 21 17 17 26 29 26 28 22 9 10 13 8 7 8 6 6 5 4 5 4 2 1 359 358 359 0 1 359 360 2 2 2 3 1 0 2 0 357 358 359 357 357 356 356 356 356 357 358 357 357 356 355 354 353 351 351 352 353 352 350 349 350 350 352 351 347 344 344 344 345 345 345 344
51 47 43 40 38 38 37 35 32 32 33 34 32 25 18 13 10 15 18 24 38 38 20 12 14 12 10 9 8 6 5 5 4 3 3 359 355 358 1 359 358 359 360 2 2 1 2 0 359 1 1 357 357 358 357 357 357 357 357 357 357 358 357 356 355 355 353 353 354 353 352 353 352 350 350 353 353 350 347 345 345 345 345 346 346 346 346
42 39 35 33 31 31 30 30 28 27 30 33 28 21 20 19 18 23 29 36 46 40 20 13 17 16 13 11 10 7 6 5 3 1 360 357 356 0 2 357 357 359 360 1 2 0 0 0 359 359 359 358 358 359 358 357 357 357 357 358 357 357 358 356 355 355 355 354 354 352 350 350 352 351 350 351 351 348 346 346 346 346 347 347 347 347 348
33 30 27 26 26 26 26 28 28 24 25 26 18 16 25 28 30 37 40 39 42 40 30 23 21 18 16 14 10 7 6 4 2 0 359 358 358 0 1 359 359 359 359 0 2 0 360 0 0 0 360 359 359 359 359 359 358 356 357 359 358 357 357 356 354 355 354 351 349 349 349 351 352 351 350 350 350 349 348 347 347 348 348 349 349 349 349
22 21 20 20 22 23 24 27 29 27 27 25 15 16 28 31 29 33 37 41 47 46 33 22 18 15 13 11 8 6 5 3 1 0 360 359 358 358 358 358 358 358 359 0 0 0 1 1 1 1 0 359 359 359 359 360 358 357 357 358 356 355 356 357 355 354 353 351 350 351 352 352 352 351 351 351 350 350 350 349 349 349 349 350 350 350 349
13 12 13 14 18 20 21 25 29 30 33 33 26 25 32 37 37 37 34 33 40 34 17 9 9 8 6 5 4 4 3 2 1 360 359 359 359 357 356 356 357 358 358 359 359 1 2 1 1 2 0 359 359 0 360 359 358 357 357 356 355 355 356 357 356 355 354 353 353 353 353 352 351 352 352 352 351 352 352 351 351 350 350 351 351 351 350
4 4 7 9 13 17 19 20 22 24 27 29 26 21 22 21 17 13 11 11 15 16 9 3 2 4 4 3 3 2 1 1 0 359 359 359 359 358 357 356 358 358 358 358 359 2 2 1 1 2 0 359 359 360 359 359 358 358 357 356 355 356 356 356 356 355 354 352 352 353 352 352 352 353 353 352 352 353 353 352 351 351 352 352 352 352 351
355 353 353 356 1 7 12 14 16 18 20 18 12 6 5 8 5 1 6 14 14 12 8 360 356 360 3 2 2 1 1 1 1 1 0 359 359 359 359 358 358 358 359 359 0 1 1 1 1 1 0 359 359 359 359 359 359 359 358 356 355 355 355 355 355 354 354 353 353 354 354 354 355 354 353 353 353 353 353 353 352 352 353 353 353 353 353
355 348 342 338 337 340 347 356 4 12 19 21 16 6 358 359 1 356 354 357 354 355 360 357 352 358 4 4 2 1 1 1 2 1 1 0 360 360 359 359 358 358 358 359 359 359 360 360 360 360 359 358 360 360 359 358 359 359 357 356 356 356 356 355 355 355 355 355 355 354 354 354 354 354 353 353 353 353 353 353 353 354 354 354 353 353 354
358 353 346 336 326 317 313 314 319 331 351 9 14 12 7 5 2 353 342 337 338 347 5 9 2 1 3 2 0 0 360 0 1 1 0 360 359 359 359 359 358 357 358 358 357 357 358 359 358 358 358 359 359 359 358 359 360 359 357 356 356 356 355 355 355 354 354 353 353 353 353 352 351 352 353 353 354 353 353 354 354 355 355 354 354 354 354
358 356 351 344 334 322 307 296 292 292 298 313 331 345 355 1 4 3 1 360 2 18 32 21 4 357 357 358 359 359 358 358 359 358 357 357 357 357 357 357 357 357 357 357 356 356 357 357 357 357 357 358 358 358 358 359 359 358 356 355 355 355 354 354 354 353 353 353 353 353 352 351 351 352 353 353 353 354 354 355 355 355 355 354 354 355 355
355 355 353 350 346 339 326 308 294 288 289 292 299 314 329 341 351 359 5 6 6 12 17 9 357 352 353 356 358 357 356 356 357 356 355 355 355 354 355 355 355 356 356 355 355 355 355 355 356 356 356 357 358 358 359 359 358 356 355 355 354 354 354 354 353 353 353 354 354 353 353 352 352 353 353 353 354 354 355 356 356 355 355 355 355 356 356
353 353 354 354 355 353 346 333 316 302 294 292 293 300 309 317 331 344 352 357 358 360 5 5 358 353 351 353 356 358 357 355 356 355 354 354 354 353 354 354 354 354 354 354 354 355 354 354 355 355 355 357 358 358 359 359 357 355 355 354 354 354 354 354 354 354 354 354 354 354 353 353 354 354 354 354 355 356 356 356 356 355 356 356 356 357 357
350 351 353 355 358 359 359 356 350 337 323 316 315 309 302 305 322 336 343 349 353 355 359 360 354 349 347 349 352 356 357 356 355 356 355 354 354 353 353 353 352 352 353 354 354 353 353 354 354 354 355 356 358 358 359 359 357 355 354 354 354 354 354 354 354 354 355 355 355 355 354 355 355 355 355 355 355 356 357 356 356 356 356 357 357 357 358
346 348 350 352 354 356 358 2 5 4 3 10 17 1 337 326 328 336 343 350 353 350 349 351 349 346 346 348 350 353 355 355 354 355 355 353 353 352 351 352 352 351 351 352 352 352 352 353 354 353 353 355 357 358 357 356 355 354 354 354 354 354 354 354 355 355 355 355 356 355 355 354 355 355 355 355 356 357 357 356 357 357 357 358 358 358 358
341 343 345 345 347 348 347 346 350 352 353 357 359 355 352 347 341 339 337 339 347 351 349 349 347 344 344 347 348 350 352 352 352 353 353 352 352 352 351 350 350 351 351 351 352 352 352 352 353 353 352 354 356 356 355 354 354 354 354 353 354 354 354 354 355 355 355 355 356 356 355 354 354 355 355 356 357 357 357 357 357 358 358 359 359 359 359
335 335 336 335 337 339 339 338 337 333 333 335 330 332 344 352 356 358 351 338 337 341 342 344 346 344 344 346 345 345 349 352 351 351 350 350 351 352 351 350 350 350 350 350 351 351 351 352 353 352 352 353 354 354 354 354 353 353 353 354 354 355 355 355 355 355 355 355 356 356 356 355 355 356 356 356 357 357 357 358 358 359 359 359 359 359 359
329 329 328 325 324 328 332 333 329 323 322 320 313 314 322 331 345 359 4 1 355 345 336 338 342 342 342 342 340 342 346 350 350 349 349 349 349 349 351 351 350 349 349 350 350 350 351 351 352 352 352 352 352 352 353 354 353 352 353 353 354 355 355 354 354 354 354 355 355 356 356 356 356 356 356 357 357 357 357 358 359 359 359 359 359 359 360
323 322 320 316 315 320 323 323 321 318 313 307 304 308 312 312 314 327 342 353 357 352 345 341 337 336 338 338 338 341 344 346 347 348 349 348 347 347 349 350 348 347 349 350 349 349 350 351 352 351 351 351 351 352 353 354 353 352 353 353 353 354 354 353 354 354 355 355 356 356 356 356 357 357 357 357 357 358 358 358 359 359 359 359 359 360 360
320 318 315 313 311 312 312 311 311 310 307 304 304 307 309 308 309 314 322 331 338 341 343 342 335 334 337 338 337 341 344 344 345 347 348 347 347 347 348 348 348 348 348 347 347 348 350 350 351 351 349 349 351 352 352 353 353 352 353 353 353 353 353 353 354 355 355 356 356 356 356 357 357 357 357 357 357 358 358 358 359 359 360 360 360 360 360
318 314 311 310 308 303 301 303 306 305 303 305 306 305 306 308 310 310 314 321 325 329 335 336 332 333 339 339 337 339 343 344 344 345 345 345 346 345 346 347 347 348 349 347 347 348 349 349 350 350 349 349 350 351 351 352 353 352 352 353 353 353 353 354 354 355 356 356 356 356 356 356 356 356 357 357 357 358 358 358 359 359 360 360 360 360 0
318 312 308 306 302 298 298 301 302 301 301 305 306 305 307 311 310 306 309 318 322 323 328 331 329 331 337 338 335 336 340 343 343 342 342 343 344 345 346 346 346 347 347 346 346 348 348 347 348 349 348 348 349 349 350 352 352 352 352 352 352 353 353 354 354 355 356 356 356 356 356 357 357 356 357 357 357 358 358 358 359 359 360 0 0 0 0
319 313 306 300 296 296 300 304 303 301 299 302 305 307 307 307 307 307 311 317 318 317 323 329 330 330 333 335 333 332 336 339 340 341 342 342 343 344 345 344 345 347 345 343 345 348 349 347 347 347 347 347 348 349 350 351 351 351 351 351 352 352 353 353 354 355 355 356 356 356 356 357 357 357 357 357 357 357 358 358 359 359 360 0 0 0 1
323 316 308 301 297 297 300 304 304 301 298 300 303 304 303 302 305 308 311 313 314 317 322 326 327 327 329 331 331 331 333 337 339 341 342 342 342 343 344 344 345 345 343 342 346 348 347 345 345 344 345 346 348 349 349 350 350 350 350 350 351 352 352 352 353 354 355 355 355 355 356 356 357 357 357 357 357 358 358 358 359 359 360 0 0 0 1
329 321 312 307 304 302 300 302 302 299 296 299 302 302 303 305 306 306 307 309 312 317 321 323 325 327 328 330 330 331 332 335 337 339 340 340 341 343 345 345 344 344 343 344 347 347 344 343 343 343 344 346 347 347 348 349 349 349 349 350 351 351 351 352 353 353 354 355 355 355 356 356 356 356 357 357 357 358 358 358 359 359 360 360 0 0 1
329 323 315 308 307 305 300 298 300 299 295 296 297 297 300 304 303 301 304 308 312 316 319 322 325 327 327 328 330 331 332 334 336 337 338 339 341 342 343 341 340 341 343 344 344 343 342 341 341 342 343 344 345 346 347 347 348 348 349 349 350 350 351 351 352 353 353 354 355 355 355 356 356 356 356 357 357 358 358 358 359 359 360 360 0 0 1
330 325 320 314 312 310 303 298 300 301 295 292 290 287 290 294 294 294 300 306 312 317 321 323 326 326 325 327 329 330 331 333 335 335 336 339 340 340 339 338 340 342 343 342 341 341 341 341 341 341 342 342 343 344 346 346 347 348 348 348 349 350 350 351 351 352 353 353 354 354 355 355 355 356 356 357 357 358 358 358 359 359 359 360 0 0 1
333 328 325 320 315 314 310 304 303 302 295 289 286 283 284 287 289 293 300 308 313 316 319 322 326 327 326 327 329 329 330 333 333 333 336 339 338 336 336 338 340 341 341 340 339 339 339 339 340 340 341 341 342 343 344 345 346 347 348 348 348 349 349 350 350 351 352 353 353 354 355 355 355 355 356 356 357 358 358 358 358 359 359 360 360 0 1
335 331 330 326 320 318 317 310 305 303 298 291 286 283 286 291 294 298 302 307 311 314 318 321 325 326 325 327 328 328 330 333 333 332 334 336 335 335 337 338 337 338 338 337 337 337 338 339 339 340 340 341 342 342 343 344 345 346 347 348 348 348 348 349 350 350 351 352 353 354 354 354 355 355 355 356 356 357 358 358 358 359 359 359 360 0 0
336 333 332 327 321 319 319 315 310 306 302 296 291 289 290 294 298 300 302 305 310 315 318 320 323 324 325 327 328 327 328 331 331 331 332 334 334 334 336 336 335 335 336 336 335 337 338 338 338 339 339 340 341 341 341 342 343 345 346 347 347 347 347 348 349 350 350 351 352 353 354 354 354 355 355 355 356 357 357 358 358 358 359 359 359 360 0
343 339 336 332 326 320 318 318 315 309 303 300 297 295 294 294 296 298 301 305 309 313 315 318 321 321 322 324 326 326 326 328 329 330 332 333 332 333 334 334 333 333 334 334 335 336 336 336 337 338 339 339 339 340 340 341 342 343 344 345 345 346 346 347 348 349 350 351 352 352 353 353 354 354 354 355 355 356 357 357 357 358 358 359 359 359 360
345 342 338 336 332 323 318 318 317 309 302 298 296 294 293 295 296 298 300 304 308 313 316 318 319 319 320 323 325 326 324 324 327 329 330 329 330 331 332 332 331 332 333 334 333 334 334 335 337 337 337 337 337 338 339 339 340 341 342 344 344 345 345 346 347 348 349 350 351 351 352 353 353 353 354 354 355 355 356 357 357 357 358 358 359 359 359
336 338 336 334 331 325 318 315 312 306 299 296 295 293 293 295 297 297 299 303 308 313 314 315 316 319 320 320 321 322 322 324 326 327 326 326 329 331 331 329 329 330 331 332 332 333 334 335 336 336 335 335 335 336 336 337 338 339 341 342 343 344 344 345 346 347 348 349 350 351 351 352 353 353 353 354 355 355 355 356 356 357 357 357 358 358 359
326 328 329 329 328 325 322 319 315 309 303 300 298 296 296 297 297 298 300 303 307 309 310 312 316 318 317 315 317 320 321 322 323 324 323 324 326 327 326 325 326 327 329 330 331 332 332 333 334 334 334 334 334 334 335 336 337 338 339 340 341 342 343 344 345 346 347 348 349 350 350 351 352 353 353 354 354 355 355 355 356 356 357 357 357 358 358